Weather Roundup
Issued by NWS Springfield, MO

Home | Current Version | Previous Version | Text Only | Print | Product List | Glossary On
Versions: 1 2 3 4 5 6 7 8 9 10 11 12 13 14 15 16 17 18 19 20 21 22 23 24 25 26 27 28 29 30 31 32 33 34 35 36 37 38 39 40 41 42 43 44 45 46 47 48 49 50
000
NZUS99 KSGF 021510
HRRSGF

HOURLY WEATHER
NATIONAL WEATHER SERVICE SPRINGFIELD MO
1000 AM CDT WED SEP 02 2015

......SGF CWA......

CITY           SKY/WX    TMP DP  RH WIND       PRES   REMARKS
SPRINGFIELD    SUNNY     78  68  71 S8        30.12R
JOPLIN         SUNNY     80  69  69 S13       30.09S
WEST PLAINS    SUNNY     81  67  62 S6        30.16R
ROLLA          SUNNY     81  68  64 SW10      30.12S
OSAGE BEACH    SUNNY     82  68  61 S8        30.12R
BRANSON        MOSUNNY   79  70  73 SE6       30.14S

......SURROUNDING SGF CWA......

CITY           SKY/WX    TMP DP  RH WIND       PRES   REMARKS
CHANUTE        SUNNY     79  69  71 S13       30.06S
PARSONS        SUNNY     78  71  79 S7        30.08R
COFFEYVILLE    SUNNY     78  70  76 S10       30.06S
EMPORIA        CLOUDY    76  67  73 S9        30.03R
GROVE OK       SUNNY     81  70  69 S10       30.10S
ROGERS AR      SUNNY     80  68  66 S10       30.13S
SILOAM SPRINGS SUNNY     79  66  65 S14       30.11S
HARRISON AR    SUNNY     78  70  76 SE6       30.14S
NEAR YELLVILLE SUNNY     79  66  65 CALM      30.11S

......KANSAS AND MISSOURI......

CITY           SKY/WX    TMP DP  RH WIND       PRES   REMARKS
KANSAS CTY INT RAIN      71  68  90 E9        30.08S FOG
DOWNTOWN KC    CLOUDY    76  67  73 E6        30.08R
COLUMBIA       MOSUNNY   78  69  73 SW9       30.11S
SEDALIA        MOSUNNY   81  69  67 SW12      30.11S
ST JOSEPH      LGT RAIN  71  69  93 SE12      30.03F
ST LOUIS       MOSUNNY   85  69  58 VRB5      30.11S
SPIRIT OF STL  MOSUNNY   83  72  69 SW6       30.09S
KIRKSVILLE     CLOUDY    73  68  84 SW5       30.11R
WICHITA        MOSUNNY   81  66  60 SW15G23   30.01S
TOPEKA         LGT RAIN  72  69  90 S9        30.01F
OLATHE         CLOUDY    73  67  81 S6        30.08R

......TENNESSEE......

CITY           SKY/WX    TMP DP  RH WIND       PRES   REMARKS
MEMPHIS        MOSUNNY   85  69  58 VRB3      30.11S
NASHVILLE      CLOUDY    83  68  60 CALM      30.14F

......ARKANSAS.......

CITY           SKY/WX    TMP DP  RH WIND       PRES   REMARKS
FAYETTEVILLE   SUNNY     79  69  71 SW12      30.12S
FT SMITH       SUNNY     81  68  64 E3        30.09F
LITTLE ROCK    MOSUNNY   85  68  56 CALM      30.10S

......OKLAHOMA.......

CITY           SKY/WX    TMP DP  RH WIND       PRES   REMARKS
TULSA          MOSUNNY   80  70  71 S10       30.05R
PONCA CITY     SUNNY     82  68  62 VRB7      30.02F
MCALESTER      SUNNY     81  69  67 S6        30.09S
OKLAHOMA CITY  MOSUNNY   80  68  66 S13       30.06S

......IOWA............

CITY           SKY/WX    TMP DP  RH WIND       PRES   REMARKS
DES MOINES     MOSUNNY   76  69  79 S17G25    29.97F
QUAD CITIES    PTSUNNY   81  70  69 SW9       30.04F

......ILLINOIS........

CITY           SKY/WX    TMP DP  RH WIND       PRES   REMARKS
QUINCY         PTSUNNY   81  70  69 SW7       30.08F
CHICAGO        MOSUNNY   80  69  69 SW7       30.06F



USA.gov is the U.S. government's official web portal to all federal, state and local government web resources and services.